Time,TemperatureF,DewpointF,PressureIn,WindDirection,WindDirectionDegrees,WindSpeedMPH,WindSpeedGustMPH,Humidity,HourlyPrecipIn,Conditions,Clouds,dailyrainin,SoftwareType,DateUTC
2013-08-22 00:02:00,61.7,37.2,24.33,South,180,23.0,25.0,40,0.00,,,0.00,meteohub,2013-08-22 06:02:00,
2013-08-22 00:07:00,61.7,37.2,24.32,South,180,23.0,25.0,40,0.00,,,0.00,meteohub,2013-08-22 06:07:00,
2013-08-22 00:12:00,62.1,37.4,24.32,South,180,21.0,25.0,40,0.00,,,0.00,meteohub,2013-08-22 06:12:00,
2013-08-22 00:17:00,62.1,36.9,24.32,South,180,24.0,24.0,39,0.00,,,0.00,meteohub,2013-08-22 06:17:00,
2013-08-22 00:22:00,61.9,37.2,24.33,South,180,21.0,24.0,40,0.00,,,0.00,meteohub,2013-08-22 06:22:00,
2013-08-22 00:27:00,61.9,37.2,24.32,South,180,25.0,25.0,40,0.00,,,0.00,meteohub,2013-08-22 06:27:00,
2013-08-22 00:32:00,61.9,37.2,24.32,South,180,22.0,27.0,40,0.00,,,0.00,meteohub,2013-08-22 06:32:00,
2013-08-22 00:37:00,61.7,37.2,24.32,South,180,23.0,27.0,40,0.00,,,0.00,meteohub,2013-08-22 06:37:00,
2013-08-22 00:42:00,61.7,37.2,24.32,South,180,24.0,27.0,40,0.00,,,0.00,meteohub,2013-08-22 06:42:00,
2013-08-22 00:47:00,62.1,37.4,24.32,South,180,30.0,30.0,40,0.00,,,0.00,meteohub,2013-08-22 06:47:00,
2013-08-22 00:52:00,61.7,37.8,24.33,South,180,24.0,32.0,41,0.00,,,0.00,meteohub,2013-08-22 06:52:00,
2013-08-22 00:57:00,61.5,37.6,24.33,South,180,23.0,32.0,41,0.00,,,0.00,meteohub,2013-08-22 06:57:00,
2013-08-22 01:02:00,61.3,37.4,24.32,South,180,24.0,30.0,41,0.00,,,0.00,meteohub,2013-08-22 07:02:00,
2013-08-22 01:07:00,61.3,37.4,24.32,South,180,24.0,25.0,41,0.00,,,0.00,meteohub,2013-08-22 07:07:00,
2013-08-22 01:12:00,61.3,38.1,24.33,South,180,30.0,30.0,42,0.00,,,0.00,meteohub,2013-08-22 07:12:00,
2013-08-22 01:17:00,61.5,37.6,24.33,South,180,30.0,30.0,41,0.00,,,0.00,meteohub,2013-08-22 07:17:00,
2013-08-22 01:22:00,61.3,38.1,24.32,South,180,32.0,32.0,42,0.00,,,0.00,meteohub,2013-08-22 07:22:00,
2013-08-22 01:27:00,61.2,37.9,24.32,South,180,26.0,32.0,42,0.00,,,0.00,meteohub,2013-08-22 07:27:00,
2013-08-22 01:32:00,61.2,38.5,24.32,South,180,27.0,33.0,43,0.00,,,0.00,meteohub,2013-08-22 07:32:00,
2013-08-22 01:37:00,61.2,38.5,24.32,South,180,30.0,33.0,43,0.00,,,0.00,meteohub,2013-08-22 07:37:00,
2013-08-22 01:42:00,61.2,38.5,24.32,South,180,29.0,33.0,43,0.00,,,0.00,meteohub,2013-08-22 07:42:00,
2013-08-22 01:47:00,61.2,39.0,24.32,South,180,24.0,33.0,44,0.00,,,0.00,meteohub,2013-08-22 07:47:00,
2013-08-22 01:52:00,61.2,39.0,24.32,South,180,22.0,33.0,44,0.00,,,0.00,meteohub,2013-08-22 07:52:00,
2013-08-22 01:57:00,61.0,38.8,24.32,South,180,25.0,33.0,44,0.00,,,0.00,meteohub,2013-08-22 07:57:00,
2013-08-22 02:02:00,61.0,38.8,24.32,South,180,18.0,31.0,44,0.00,,,0.00,meteohub,2013-08-22 08:02:00,
2013-08-22 02:07:00,61.0,38.8,24.32,South,180,18.0,31.0,44,0.00,,,0.00,meteohub,2013-08-22 08:07:00,
2013-08-22 02:12:00,60.6,38.7,24.33,South,180,21.0,31.0,44,0.00,,,0.00,meteohub,2013-08-22 08:12:00,
2013-08-22 02:17:00,60.3,38.8,24.32,South,180,18.0,27.0,45,0.00,,,0.00,meteohub,2013-08-22 08:17:00,
2013-08-22 02:22:00,60.4,39.6,24.33,South,180,22.0,27.0,46,0.00,,,0.00,meteohub,2013-08-22 08:22:00,
2013-08-22 02:27:00,60.8,39.4,24.33,South,180,21.0,26.0,45,0.00,,,0.00,meteohub,2013-08-22 08:27:00,
2013-08-22 02:32:00,60.8,38.7,24.33,South,180,18.0,23.0,44,0.00,,,0.00,meteohub,2013-08-22 08:32:00,
2013-08-22 02:37:00,61.0,38.8,24.33,South,180,21.0,25.0,44,0.00,,,0.00,meteohub,2013-08-22 08:37:00,
2013-08-22 02:42:00,61.2,39.0,24.32,South,180,23.0,26.0,44,0.00,,,0.00,meteohub,2013-08-22 08:42:00,
2013-08-22 02:47:00,61.0,38.8,24.32,South,180,26.0,26.0,44,0.00,,,0.00,meteohub,2013-08-22 08:47:00,
2013-08-22 02:52:00,60.6,39.2,24.32,South,180,25.0,29.0,45,0.00,,,0.00,meteohub,2013-08-22 08:52:00,
2013-08-22 02:57:00,60.8,39.4,24.32,South,180,31.0,31.0,45,0.00,,,0.00,meteohub,2013-08-22 08:57:00,
2013-08-22 03:02:00,60.8,39.4,24.31,South,180,27.0,32.0,45,0.00,,,0.00,meteohub,2013-08-22 09:02:00,
2013-08-22 03:07:00,60.8,39.4,24.32,South,180,27.0,32.0,45,0.00,,,0.00,meteohub,2013-08-22 09:07:00,
2013-08-22 03:12:00,60.4,39.6,24.32,South,180,27.0,32.0,46,0.00,,,0.00,meteohub,2013-08-22 09:12:00,
2013-08-22 03:17:00,60.6,39.7,24.31,South,180,25.0,30.0,46,0.00,,,0.00,meteohub,2013-08-22 09:17:00,
2013-08-22 03:22:00,60.4,39.6,24.32,South,180,28.0,30.0,46,0.00,,,0.00,meteohub,2013-08-22 09:22:00,
2013-08-22 03:27:00,60.3,39.4,24.31,South,180,29.0,33.0,46,0.00,,,0.00,meteohub,2013-08-22 09:27:00,
2013-08-22 03:32:00,60.8,39.9,24.32,South,180,29.0,33.0,46,0.00,,,0.00,meteohub,2013-08-22 09:32:00,
2013-08-22 03:37:00,60.1,39.7,24.32,South,180,28.0,34.0,47,0.00,,,0.00,meteohub,2013-08-22 09:37:00,
2013-08-22 03:42:00,60.3,39.4,24.32,South,180,26.0,34.0,46,0.00,,,0.00,meteohub,2013-08-22 09:42:00,
2013-08-22 03:47:00,60.4,40.1,24.32,South,180,32.0,35.0,47,0.00,,,0.00,meteohub,2013-08-22 09:47:00,
2013-08-22 03:52:00,60.8,39.9,24.32,South,180,26.0,35.0,46,0.00,,,0.00,meteohub,2013-08-22 09:52:00,
2013-08-22 03:57:00,60.3,39.9,24.32,South,180,28.0,35.0,47,0.00,,,0.00,meteohub,2013-08-22 09:57:00,
2013-08-22 04:02:00,59.7,39.9,24.32,South,180,27.0,32.0,48,0.00,,,0.00,meteohub,2013-08-22 10:02:00,
2013-08-22 04:07:00,59.7,39.9,24.32,South,180,27.0,31.0,48,0.00,,,0.00,meteohub,2013-08-22 10:07:00,
2013-08-22 04:12:00,59.7,39.9,24.32,South,180,27.0,31.0,48,0.00,,,0.00,meteohub,2013-08-22 10:12:00,
2013-08-22 04:17:00,59.7,39.9,24.32,South,180,23.0,27.0,48,0.00,,,0.00,meteohub,2013-08-22 10:17:00,
2013-08-22 04:22:00,59.2,40.1,24.32,South,180,23.0,28.0,49,0.00,,,0.00,meteohub,2013-08-22 10:22:00,
2013-08-22 04:27:00,59.0,40.5,24.32,South,180,23.0,28.0,50,0.00,,,0.00,meteohub,2013-08-22 10:27:00,
2013-08-22 04:32:00,58.8,40.3,24.32,South,180,21.0,27.0,50,0.00,,,0.00,meteohub,2013-08-22 10:32:00,
2013-08-22 04:37:00,59.0,40.5,24.32,South,180,25.0,25.0,50,0.00,,,0.00,meteohub,2013-08-22 10:37:00,
2013-08-22 04:42:00,58.5,40.5,24.32,South,180,24.0,28.0,51,0.00,,,0.00,meteohub,2013-08-22 10:42:00,
2013-08-22 04:47:00,59.5,40.3,24.32,South,180,23.0,28.0,49,0.00,,,0.00,meteohub,2013-08-22 10:47:00,
2013-08-22 06:27:00,57.9,40.8,24.32,South,180,19.0,24.0,53,0.00,,,0.00,meteohub,2013-08-22 12:27:00,
2013-08-22 06:37:00,57.9,40.8,24.32,South,180,20.0,22.0,53,0.00,,,0.00,meteohub,2013-08-22 12:37:00,
2013-08-22 06:42:00,57.6,41.0,24.32,South,180,18.0,22.0,54,0.00,,,0.00,meteohub,2013-08-22 12:42:00,
2013-08-22 06:47:00,57.7,40.6,24.32,SSE,158,18.0,22.0,53,0.00,,,0.00,meteohub,2013-08-22 12:47:00,
2013-08-22 06:52:00,58.1,41.0,24.32,South,180,18.0,21.0,53,0.00,,,0.00,meteohub,2013-08-22 12:52:00,
2013-08-22 06:57:00,58.1,41.0,24.32,South,180,19.0,20.0,53,0.00,,,0.00,meteohub,2013-08-22 12:57:00,
2013-08-22 07:02:00,58.3,41.2,24.32,South,180,21.0,21.0,53,0.00,,,0.00,meteohub,2013-08-22 13:02:00,
2013-08-22 07:07:00,58.3,41.2,24.32,South,180,21.0,21.0,53,0.00,,,0.00,meteohub,2013-08-22 13:07:00,
2013-08-22 07:12:00,58.6,41.0,24.31,South,180,21.0,21.0,52,0.00,,,0.00,meteohub,2013-08-22 13:12:00,
2013-08-22 07:17:00,58.8,41.2,24.31,South,180,22.0,22.0,52,0.00,,,0.00,meteohub,2013-08-22 13:17:00,
2013-08-22 07:22:00,59.2,41.0,24.32,South,180,21.0,22.0,51,0.00,,,0.00,meteohub,2013-08-22 13:22:00,
2013-08-22 07:27:00,59.4,41.2,24.32,South,180,23.0,23.0,51,0.00,,,0.00,meteohub,2013-08-22 13:27:00,
2013-08-22 07:32:00,59.7,41.5,24.32,South,180,21.0,24.0,51,0.00,,,0.00,meteohub,2013-08-22 13:32:00,
2013-08-22 07:37:00,59.9,41.2,24.32,South,180,22.0,24.0,50,0.00,,,0.00,meteohub,2013-08-22 13:37:00,
2013-08-22 07:42:00,60.3,41.0,24.32,South,180,23.0,24.0,49,0.00,,,0.00,meteohub,2013-08-22 13:42:00,
2013-08-22 07:47:00,60.4,41.7,24.32,South,180,20.0,23.0,50,0.00,,,0.00,meteohub,2013-08-22 13:47:00,
2013-08-22 07:52:00,60.8,41.5,24.32,South,180,23.0,23.0,49,0.00,,,0.00,meteohub,2013-08-22 13:52:00,
2013-08-22 07:57:00,61.0,41.7,24.32,South,180,23.0,23.0,49,0.00,,,0.00,meteohub,2013-08-22 13:57:00,
2013-08-22 08:02:00,61.0,41.7,24.32,South,180,21.0,23.0,49,0.00,,,0.00,meteohub,2013-08-22 14:02:00,
2013-08-22 08:12:00,61.7,41.9,24.31,South,180,23.0,23.0,48,0.00,,,0.00,meteohub,2013-08-22 14:12:00,
2013-08-22 08:17:00,61.7,41.9,24.32,South,180,20.0,24.0,48,0.00,,,0.00,meteohub,2013-08-22 14:17:00,
2013-08-22 08:22:00,61.9,41.9,24.32,South,180,23.0,24.0,48,0.00,,,0.00,meteohub,2013-08-22 14:22:00,
2013-08-22 08:27:00,61.9,41.9,24.31,South,180,23.0,24.0,48,0.00,,,0.00,meteohub,2013-08-22 14:27:00,
2013-08-22 08:32:00,62.1,42.1,24.31,South,180,21.0,26.0,48,0.00,,,0.00,meteohub,2013-08-22 14:32:00,
2013-08-22 08:37:00,62.4,41.9,24.32,South,180,21.0,26.0,47,0.00,,,0.00,meteohub,2013-08-22 14:37:00,
2013-08-22 08:42:00,62.6,41.5,24.31,South,180,24.0,25.0,46,0.00,,,0.00,meteohub,2013-08-22 14:42:00,
2013-08-22 08:47:00,62.6,42.1,24.32,South,180,21.0,25.0,47,0.00,,,0.00,meteohub,2013-08-22 14:47:00,
2013-08-22 08:52:00,62.8,42.3,24.32,South,180,21.0,24.0,47,0.00,,,0.00,meteohub,2013-08-22 14:52:00,
2013-08-22 08:57:00,63.0,41.9,24.32,South,180,25.0,25.0,46,0.00,,,0.00,meteohub,2013-08-22 14:57:00,
2013-08-22 09:02:00,63.0,41.9,24.32,South,180,24.0,25.0,46,0.00,,,0.00,meteohub,2013-08-22 15:02:00,
2013-08-22 09:07:00,63.0,41.9,24.32,South,180,24.0,25.0,46,0.00,,,0.00,meteohub,2013-08-22 15:07:00,
2013-08-22 09:12:00,63.5,42.3,24.33,South,180,21.0,25.0,46,0.00,,,0.00,meteohub,2013-08-22 15:12:00,
2013-08-22 09:17:00,63.7,41.9,24.32,South,180,21.0,24.0,45,0.00,,,0.00,meteohub,2013-08-22 15:17:00,
2013-08-22 09:22:00,64.2,41.9,24.32,South,180,19.0,24.0,44,0.00,,,0.00,meteohub,2013-08-22 15:22:00,
2013-08-22 09:27:00,64.2,42.4,24.32,South,180,21.0,23.0,45,0.00,,,0.00,meteohub,2013-08-22 15:27:00,
2013-08-22 09:32:00,64.6,43.3,24.32,South,180,21.0,22.0,46,0.00,,,0.00,meteohub,2013-08-22 15:32:00,
2013-08-22 09:37:00,64.6,42.3,24.32,South,180,23.0,25.0,44,0.00,,,0.00,meteohub,2013-08-22 15:37:00,
2013-08-22 09:42:00,64.8,42.3,24.32,South,180,23.0,25.0,44,0.00,,,0.00,meteohub,2013-08-22 15:42:00,
2013-08-22 09:47:00,65.1,42.1,24.32,South,180,25.0,25.0,43,0.00,,,0.00,meteohub,2013-08-22 15:47:00,
2013-08-22 09:52:00,65.5,42.4,24.32,South,180,26.0,26.0,43,0.00,,,0.00,meteohub,2013-08-22 15:52:00,
2013-08-22 09:57:00,65.7,42.6,24.32,South,180,24.0,26.0,43,0.00,,,0.00,meteohub,2013-08-22 15:57:00,
2013-08-22 10:02:00,65.7,43.2,24.32,South,180,24.0,26.0,44,0.00,,,0.00,meteohub,2013-08-22 16:02:00,
2013-08-22 10:07:00,65.7,43.2,24.32,South,180,24.0,26.0,44,0.00,,,0.00,meteohub,2013-08-22 16:07:00,
2013-08-22 10:12:00,66.4,43.2,24.32,South,180,24.0,26.0,43,0.00,,,0.00,meteohub,2013-08-22 16:12:00,
2013-08-22 10:17:00,66.9,42.4,24.32,South,180,21.0,27.0,41,0.00,,,0.00,meteohub,2013-08-22 16:17:00,
2013-08-22 10:22:00,68.5,42.6,24.32,South,180,19.0,27.0,39,0.00,,,0.00,meteohub,2013-08-22 16:22:00,
2013-08-22 10:27:00,67.8,42.6,24.32,South,180,19.0,27.0,40,0.00,,,0.00,meteohub,2013-08-22 16:27:00,
2013-08-22 10:32:00,67.8,41.9,24.32,South,180,20.0,22.0,39,0.00,,,0.00,meteohub,2013-08-22 16:32:00,
2013-08-22 10:37:00,68.4,42.4,24.32,South,180,18.0,22.0,39,0.00,,,0.00,meteohub,2013-08-22 16:37:00,
2013-08-22 10:42:00,68.5,43.3,24.32,South,180,18.0,21.0,40,0.00,,,0.00,meteohub,2013-08-22 16:42:00,
2013-08-22 10:47:00,68.7,42.1,24.32,South,180,20.0,21.0,38,0.00,,,0.00,meteohub,2013-08-22 16:47:00,
2013-08-22 10:52:00,68.5,41.9,24.32,South,180,18.0,21.0,38,0.00,,,0.00,meteohub,2013-08-22 16:52:00,
2013-08-22 10:57:00,69.1,43.2,24.32,South,180,17.0,21.0,39,0.00,,,0.00,meteohub,2013-08-22 16:57:00,
2013-08-22 11:02:00,69.6,42.8,24.31,South,180,18.0,21.0,38,0.00,,,0.00,meteohub,2013-08-22 17:02:00,
2013-08-22 11:07:00,69.8,41.7,24.32,South,180,20.0,21.0,36,0.00,,,0.00,meteohub,2013-08-22 17:07:00,
2013-08-22 11:12:00,69.8,41.7,24.32,South,180,17.0,21.0,36,0.00,,,0.00,meteohub,2013-08-22 17:12:00,
2013-08-22 11:17:00,70.2,41.9,24.32,SSE,158,19.0,21.0,36,0.00,,,0.00,meteohub,2013-08-22 17:17:00,
2013-08-22 11:22:00,70.2,41.9,24.31,SSE,158,19.0,21.0,36,0.00,,,0.00,meteohub,2013-08-22 17:22:00,
2013-08-22 11:27:00,71.1,41.4,24.31,South,180,20.0,21.0,34,0.00,,,0.00,meteohub,2013-08-22 17:27:00,
2013-08-22 11:32:00,71.6,42.4,24.31,South,180,17.0,20.0,35,0.00,,,0.00,meteohub,2013-08-22 17:32:00,
2013-08-22 11:37:00,70.9,41.9,24.31,SE,135,16.0,20.0,35,0.00,,,0.00,meteohub,2013-08-22 17:37:00,
2013-08-22 11:42:00,71.1,42.8,24.31,SE,135,17.0,21.0,36,0.00,,,0.00,meteohub,2013-08-22 17:42:00,
2013-08-22 11:47:00,71.6,41.7,24.31,SSE,158,17.0,21.0,34,0.00,,,0.00,meteohub,2013-08-22 17:47:00,
2013-08-22 11:52:00,71.2,42.3,24.31,South,180,15.0,21.0,35,0.00,,,0.00,meteohub,2013-08-22 17:52:00,
2013-08-22 11:57:00,71.2,42.3,24.31,SE,135,18.0,21.0,35,0.00,,,0.00,meteohub,2013-08-22 17:57:00,
2013-08-22 12:02:00,71.2,41.4,24.31,South,180,16.0,18.0,34,0.00,,,0.00,meteohub,2013-08-22 18:02:00,
2013-08-22 12:07:00,71.2,41.4,24.31,South,180,16.0,18.0,34,0.00,,,0.00,meteohub,2013-08-22 18:07:00,
2013-08-22 12:12:00,72.3,40.8,24.31,South,180,15.0,18.0,32,0.00,,,0.00,meteohub,2013-08-22 18:12:00,
2013-08-22 12:17:00,72.0,42.1,24.30,South,180,14.0,18.0,34,0.00,,,0.00,meteohub,2013-08-22 18:17:00,
2013-08-22 12:22:00,72.0,42.8,24.31,South,180,11.0,18.0,35,0.00,,,0.00,meteohub,2013-08-22 18:22:00,
2013-08-22 12:27:00,72.3,42.4,24.31,SE,135,9.0,18.0,34,0.00,,,0.00,meteohub,2013-08-22 18:27:00,
2013-08-22 12:32:00,73.2,40.8,24.30,SE,135,11.0,16.0,31,0.00,,,0.00,meteohub,2013-08-22 18:32:00,
2013-08-22 12:37:00,73.2,40.8,24.30,South,180,11.0,15.0,31,0.00,,,0.00,meteohub,2013-08-22 18:37:00,
2013-08-22 12:42:00,73.2,40.8,24.30,South,180,9.0,13.0,31,0.00,,,0.00,meteohub,2013-08-22 18:42:00,
2013-08-22 12:47:00,73.6,40.3,24.30,SE,135,11.0,12.0,30,0.00,,,0.00,meteohub,2013-08-22 18:47:00,
2013-08-22 12:52:00,74.3,41.7,24.30,SE,135,11.0,15.0,31,0.00,,,0.00,meteohub,2013-08-22 18:52:00,
2013-08-22 12:57:00,75.0,41.5,24.30,SE,135,12.0,15.0,30,0.00,,,0.00,meteohub,2013-08-22 18:57:00,
2013-08-22 13:02:00,75.2,41.7,24.30,SE,135,11.0,14.0,30,0.00,,,0.00,meteohub,2013-08-22 19:02:00,
2013-08-22 13:07:00,75.2,41.7,24.30,SE,135,11.0,13.0,30,0.00,,,0.00,meteohub,2013-08-22 19:07:00,
2013-08-22 13:12:00,76.1,37.8,24.29,SE,135,12.0,15.0,25,0.00,,,0.00,meteohub,2013-08-22 19:12:00,
2013-08-22 13:17:00,75.9,38.7,24.29,SE,135,15.0,15.0,26,0.00,,,0.00,meteohub,2013-08-22 19:17:00,
2013-08-22 13:22:00,75.7,38.5,24.29,SE,135,11.0,15.0,26,0.00,,,0.00,meteohub,2013-08-22 19:22:00,
2013-08-22 13:27:00,75.9,37.6,24.28,South,180,11.0,15.0,25,0.00,,,0.00,meteohub,2013-08-22 19:27:00,
2013-08-22 13:32:00,75.4,36.1,24.29,South,180,9.0,16.0,24,0.00,,,0.00,meteohub,2013-08-22 19:32:00,
2013-08-22 13:37:00,75.4,35.1,24.28,SE,135,2.0,16.0,23,0.00,,,0.00,meteohub,2013-08-22 19:37:00,
2013-08-22 13:42:00,75.4,38.1,24.28,SE,135,14.0,16.0,26,0.00,,,0.00,meteohub,2013-08-22 19:42:00,
2013-08-22 13:47:00,75.2,37.0,24.28,SE,135,14.0,15.0,25,0.00,,,0.00,meteohub,2013-08-22 19:47:00,
2013-08-22 13:52:00,75.6,36.3,24.28,South,180,9.0,15.0,24,0.00,,,0.00,meteohub,2013-08-22 19:52:00,
2013-08-22 13:57:00,76.3,36.9,24.28,SW,225,4.0,15.0,24,0.00,,,0.00,meteohub,2013-08-22 19:57:00,
2013-08-22 14:02:00,76.6,33.8,24.28,South,180,7.0,15.0,21,0.00,,,0.00,meteohub,2013-08-22 20:02:00,
2013-08-22 14:07:00,76.6,33.8,24.28,South,180,7.0,11.0,21,0.00,,,0.00,meteohub,2013-08-22 20:07:00,
2013-08-22 14:12:00,78.1,38.3,24.28,NE,45,3.0,8.0,24,0.00,,,0.00,meteohub,2013-08-22 20:12:00,
2013-08-22 14:17:00,79.2,40.3,24.28,North,0,6.0,7.0,25,0.00,,,0.00,meteohub,2013-08-22 20:17:00,
2013-08-22 14:22:00,78.3,39.6,24.27,NW,315,7.0,7.0,25,0.00,,,0.00,meteohub,2013-08-22 20:22:00,
2013-08-22 14:27:00,77.4,39.7,24.27,West,270,6.0,8.0,26,0.00,,,0.00,meteohub,2013-08-22 20:27:00,
2013-08-22 14:32:00,77.4,40.8,24.27,North,0,10.0,10.0,27,0.00,,,0.00,meteohub,2013-08-22 20:32:00,
2013-08-22 14:37:00,76.3,40.8,24.27,North,0,10.0,10.0,28,0.00,,,0.00,meteohub,2013-08-22 20:37:00,
2013-08-22 14:42:00,76.5,41.9,24.27,North,0,8.0,10.0,29,0.00,,,0.00,meteohub,2013-08-22 20:42:00,
2013-08-22 14:47:00,76.6,41.2,24.27,NE,45,6.0,13.0,28,0.00,,,0.00,meteohub,2013-08-22 20:47:00,
2013-08-22 14:52:00,76.1,41.5,24.27,NNE,23,11.0,13.0,29,0.00,,,0.00,meteohub,2013-08-22 20:52:00,
2013-08-22 14:57:00,75.6,40.1,24.27,North,0,7.0,13.0,28,0.00,,,0.00,meteohub,2013-08-22 20:57:00,
2013-08-22 15:02:00,75.2,40.8,24.27,North,0,8.0,12.0,29,0.00,,,0.00,meteohub,2013-08-22 21:02:00,
2013-08-22 15:07:00,75.2,40.8,24.27,North,0,8.0,12.0,29,0.00,,,0.00,meteohub,2013-08-22 21:07:00,
2013-08-22 15:12:00,75.9,41.4,24.27,North,0,8.0,9.0,29,0.00,,,0.00,meteohub,2013-08-22 21:12:00,
2013-08-22 15:17:00,77.0,40.5,24.26,NE,45,6.0,8.0,27,0.00,,,0.00,meteohub,2013-08-22 21:17:00,
2013-08-22 15:22:00,77.5,39.0,24.26,NE,45,4.0,11.0,25,0.00,,,0.00,meteohub,2013-08-22 21:22:00,
2013-08-22 15:27:00,79.2,39.2,24.26,NE,45,4.0,11.0,24,0.00,,,0.00,meteohub,2013-08-22 21:27:00,
2013-08-22 15:32:00,78.3,38.5,24.26,NE,45,8.0,11.0,24,0.00,,,0.00,meteohub,2013-08-22 21:32:00,
2013-08-22 15:37:00,77.9,39.2,24.26,North,0,8.0,9.0,25,0.00,,,0.00,meteohub,2013-08-22 21:37:00,
2013-08-22 15:42:00,77.0,38.5,24.25,North,0,9.0,9.0,25,0.00,,,0.00,meteohub,2013-08-22 21:42:00,
2013-08-22 15:47:00,76.8,39.4,24.25,North,0,11.0,11.0,26,0.00,,,0.00,meteohub,2013-08-22 21:47:00,
2013-08-22 15:52:00,76.6,40.1,24.25,North,0,11.0,11.0,27,0.00,,,0.00,meteohub,2013-08-22 21:52:00,
2013-08-22 15:57:00,77.9,38.1,24.25,North,0,12.0,12.0,24,0.00,,,0.00,meteohub,2013-08-22 21:57:00,
2013-08-22 16:02:00,78.8,37.9,24.25,North,0,7.0,12.0,23,0.00,,,0.00,meteohub,2013-08-22 22:02:00,
2013-08-22 16:07:00,78.8,37.9,24.25,North,0,7.0,12.0,23,0.00,,,0.00,meteohub,2013-08-22 22:07:00,
2013-08-22 16:12:00,80.8,37.2,24.25,NW,315,8.0,12.0,21,0.00,,,0.00,meteohub,2013-08-22 22:12:00,
2013-08-22 16:17:00,80.8,37.2,24.25,NW,315,11.0,11.0,21,0.00,,,0.00,meteohub,2013-08-22 22:17:00,
2013-08-22 16:22:00,80.6,35.8,24.24,North,0,8.0,12.0,20,0.00,,,0.00,meteohub,2013-08-22 22:22:00,
2013-08-22 16:27:00,80.1,36.7,24.24,North,0,12.0,12.0,21,0.00,,,0.00,meteohub,2013-08-22 22:27:00,
2013-08-22 16:32:00,80.1,36.7,24.24,North,0,8.0,13.0,21,0.00,,,0.00,meteohub,2013-08-22 22:32:00,
2013-08-22 16:37:00,80.2,34.2,24.23,North,0,7.0,13.0,19,0.00,,,0.00,meteohub,2013-08-22 22:37:00,
2013-08-22 16:42:00,80.6,34.5,24.23,NE,45,8.0,13.0,19,0.00,,,0.00,meteohub,2013-08-22 22:42:00,
2013-08-22 16:47:00,81.0,33.4,24.23,NE,45,8.0,13.0,18,0.00,,,0.00,meteohub,2013-08-22 22:47:00,
2013-08-22 16:52:00,81.7,31.1,24.23,North,0,9.0,11.0,16,0.00,,,0.00,meteohub,2013-08-22 22:52:00,
2013-08-22 16:57:00,82.0,32.9,24.23,NE,45,7.0,12.0,17,0.00,,,0.00,meteohub,2013-08-22 22:57:00,
2013-08-22 17:02:00,82.8,30.4,24.23,North,0,6.0,12.0,15,0.00,,,0.00,meteohub,2013-08-22 23:02:00,
2013-08-22 17:07:00,82.8,30.4,24.23,North,0,6.0,12.0,15,0.00,,,0.00,meteohub,2013-08-22 23:07:00,
2013-08-22 17:12:00,82.4,33.3,24.23,NNE,23,6.0,8.0,17,0.00,,,0.00,meteohub,2013-08-22 23:12:00,
2013-08-22 17:17:00,81.7,31.1,24.22,North,0,8.0,8.0,16,0.00,,,0.00,meteohub,2013-08-22 23:17:00,
2013-08-22 17:22:00,80.1,32.7,24.22,North,0,9.0,9.0,18,0.00,,,0.00,meteohub,2013-08-22 23:22:00,
2013-08-22 17:27:00,78.6,35.4,24.22,North,0,11.0,11.0,21,0.00,,,0.00,meteohub,2013-08-22 23:27:00,
2013-08-22 17:32:00,78.6,35.4,24.22,NE,45,13.0,15.0,21,0.00,,,0.00,meteohub,2013-08-22 23:32:00,
2013-08-22 17:37:00,78.4,35.2,24.23,NE,45,10.0,15.0,21,0.00,,,0.00,meteohub,2013-08-22 23:37:00,
2013-08-22 17:42:00,78.3,35.1,24.22,North,0,7.0,15.0,21,0.00,,,0.00,meteohub,2013-08-22 23:42:00,
2013-08-22 17:47:00,78.1,37.2,24.23,North,0,6.0,13.0,23,0.00,,,0.00,meteohub,2013-08-22 23:47:00,
2013-08-22 17:52:00,77.9,34.9,24.23,NE,45,6.0,11.0,21,0.00,,,0.00,meteohub,2013-08-22 23:52:00,
2013-08-22 17:57:00,77.9,34.9,24.22,North,0,2.0,11.0,21,0.00,,,0.00,meteohub,2013-08-22 23:57:00,
2013-08-22 18:02:00,77.9,33.6,24.22,North,0,2.0,8.0,20,0.00,,,0.00,meteohub,2013-08-23 00:02:00,
2013-08-22 18:07:00,77.9,33.6,24.22,North,0,2.0,6.0,20,0.00,,,0.00,meteohub,2013-08-23 00:07:00,
2013-08-22 18:12:00,77.5,35.8,24.22,North,0,4.0,4.0,22,0.00,,,0.00,meteohub,2013-08-23 00:12:00,
2013-08-22 18:17:00,77.2,36.5,24.22,NE,45,4.0,4.0,23,0.00,,,0.00,meteohub,2013-08-23 00:17:00,
2013-08-22 18:22:00,77.0,37.4,24.21,NE,45,5.0,5.0,24,0.00,,,0.00,meteohub,2013-08-23 00:22:00,
2013-08-22 18:27:00,76.6,37.2,24.22,NE,45,3.0,6.0,24,0.00,,,0.00,meteohub,2013-08-23 00:27:00,
2013-08-22 18:32:00,76.5,33.6,24.22,East,90,4.0,6.0,21,0.00,,,0.00,meteohub,2013-08-23 00:32:00,
2013-08-22 18:37:00,76.6,34.9,24.21,NE,45,4.0,6.0,22,0.00,,,0.00,meteohub,2013-08-23 00:37:00,
2013-08-22 18:42:00,76.6,36.1,24.21,North,0,4.0,6.0,23,0.00,,,0.00,meteohub,2013-08-23 00:42:00,
2013-08-22 18:47:00,76.1,38.7,24.21,North,0,6.0,7.0,26,0.00,,,0.00,meteohub,2013-08-23 00:47:00,
2013-08-22 18:52:00,75.6,39.2,24.21,NE,45,4.0,8.0,27,0.00,,,0.00,meteohub,2013-08-23 00:52:00,
2013-08-22 18:57:00,75.4,37.0,24.21,East,90,5.0,8.0,25,0.00,,,0.00,meteohub,2013-08-23 00:57:00,
2013-08-22 19:02:00,75.2,37.9,24.22,East,90,4.0,7.0,26,0.00,,,0.00,meteohub,2013-08-23 01:02:00,
2013-08-22 19:07:00,75.2,37.9,24.21,East,90,4.0,6.0,26,0.00,,,0.00,meteohub,2013-08-23 01:07:00,
2013-08-22 19:12:00,75.4,35.1,24.21,East,90,5.0,5.0,23,0.00,,,0.00,meteohub,2013-08-23 01:12:00,
2013-08-22 19:17:00,75.7,35.2,24.21,East,90,3.0,5.0,23,0.00,,,0.00,meteohub,2013-08-23 01:17:00,
2013-08-22 19:22:00,76.1,34.5,24.21,East,90,3.0,5.0,22,0.00,,,0.00,meteohub,2013-08-23 01:22:00,
2013-08-22 19:27:00,76.5,37.0,24.21,East,90,7.0,7.0,24,0.00,,,0.00,meteohub,2013-08-23 01:27:00,
2013-08-22 19:32:00,76.1,39.7,24.22,SE,135,12.0,12.0,27,0.00,,,0.00,meteohub,2013-08-23 01:32:00,
2013-08-22 19:37:00,75.2,37.9,24.21,South,180,15.0,15.0,26,0.00,,,0.00,meteohub,2013-08-23 01:37:00,
2013-08-22 19:42:00,75.6,37.2,24.21,South,180,4.0,15.0,25,0.00,,,0.00,meteohub,2013-08-23 01:42:00,
2013-08-22 19:47:00,75.2,37.0,24.21,South,180,8.0,15.0,25,0.00,,,0.00,meteohub,2013-08-23 01:47:00,
2013-08-22 19:52:00,74.8,37.6,24.21,South,180,10.0,15.0,26,0.00,,,0.00,meteohub,2013-08-23 01:52:00,
2013-08-22 19:57:00,74.7,37.6,24.21,South,180,7.0,13.0,26,0.00,,,0.00,meteohub,2013-08-23 01:57:00,
2013-08-22 20:02:00,74.1,37.0,24.22,South,180,7.0,10.0,26,0.00,,,0.00,meteohub,2013-08-23 02:02:00,
2013-08-22 20:07:00,74.1,37.0,24.21,South,180,7.0,10.0,26,0.00,,,0.00,meteohub,2013-08-23 02:07:00,
2013-08-22 20:12:00,73.9,32.7,24.21,SW,225,12.0,15.0,22,0.00,,,0.00,meteohub,2013-08-23 02:12:00,
2013-08-22 20:17:00,73.6,33.4,24.22,SW,225,11.0,20.0,23,0.00,,,0.00,meteohub,2013-08-23 02:17:00,
2013-08-22 20:22:00,73.4,33.3,24.21,South,180,11.0,20.0,23,0.00,,,0.00,meteohub,2013-08-23 02:22:00,
2013-08-22 20:27:00,73.2,34.3,24.21,SW,225,9.0,20.0,24,0.00,,,0.00,meteohub,2013-08-23 02:27:00,
2013-08-22 20:32:00,72.7,34.9,24.21,SSW,203,11.0,18.0,25,0.00,,,0.00,meteohub,2013-08-23 02:32:00,
2013-08-22 20:37:00,72.0,35.2,24.22,South,180,17.0,17.0,26,0.00,,,0.00,meteohub,2013-08-23 02:37:00,
2013-08-22 20:42:00,70.5,37.6,24.22,SE,135,14.0,21.0,30,0.00,,,0.00,meteohub,2013-08-23 02:42:00,
2013-08-22 20:47:00,70.5,38.5,24.22,South,180,16.0,21.0,31,0.00,,,0.00,meteohub,2013-08-23 02:47:00,
2013-08-22 20:52:00,70.3,38.3,24.22,SSE,158,21.0,21.0,31,0.00,,,0.00,meteohub,2013-08-23 02:52:00,
2013-08-22 20:57:00,70.0,39.6,24.22,South,180,17.0,21.0,33,0.00,,,0.00,meteohub,2013-08-23 02:57:00,
2013-08-22 21:02:00,69.4,39.9,24.22,SE,135,18.0,21.0,34,0.00,,,0.00,meteohub,2013-08-23 03:02:00,
2013-08-22 21:07:00,69.4,39.9,24.22,SE,135,18.0,21.0,34,0.00,,,0.00,meteohub,2013-08-23 03:07:00,
2013-08-22 21:12:00,68.9,43.0,24.22,SE,135,12.0,20.0,39,0.00,,,0.00,meteohub,2013-08-23 03:12:00,
2013-08-22 21:17:00,68.7,43.3,24.22,SE,135,15.0,18.0,40,0.00,,,0.00,meteohub,2013-08-23 03:17:00,
2013-08-22 21:22:00,68.5,44.6,24.23,SSE,158,17.0,18.0,42,0.00,,,0.00,meteohub,2013-08-23 03:22:00,
2013-08-22 21:27:00,68.4,45.0,24.22,SSE,158,21.0,23.0,43,0.00,,,0.00,meteohub,2013-08-23 03:27:00,
2013-08-22 21:32:00,68.0,45.3,24.22,SSE,158,21.0,23.0,44,0.00,,,0.00,meteohub,2013-08-23 03:32:00,
2013-08-22 21:37:00,67.3,45.9,24.23,SSE,158,17.0,23.0,46,0.00,,,0.00,meteohub,2013-08-23 03:37:00,
2013-08-22 21:42:00,67.5,45.3,24.22,South,180,22.0,22.0,45,0.00,,,0.00,meteohub,2013-08-23 03:42:00,
2013-08-22 21:47:00,67.1,45.7,24.22,South,180,20.0,22.0,46,0.00,,,0.00,meteohub,2013-08-23 03:47:00,
2013-08-22 21:52:00,66.4,46.0,24.22,South,180,21.0,22.0,48,0.00,,,0.00,meteohub,2013-08-23 03:52:00,
2013-08-22 21:57:00,66.4,46.6,24.22,South,180,20.0,22.0,49,0.00,,,0.00,meteohub,2013-08-23 03:57:00,
2013-08-22 22:02:00,66.2,46.9,24.22,South,180,22.0,23.0,50,0.00,,,0.00,meteohub,2013-08-23 04:02:00,
2013-08-22 22:07:00,66.2,46.9,24.22,South,180,22.0,23.0,50,0.00,,,0.00,meteohub,2013-08-23 04:07:00,
2013-08-22 22:12:00,65.8,47.1,24.22,South,180,19.0,23.0,51,0.00,,,0.00,meteohub,2013-08-23 04:12:00,
2013-08-22 22:17:00,65.3,47.3,24.22,South,180,21.0,22.0,52,0.00,,,0.00,meteohub,2013-08-23 04:17:00,
2013-08-22 22:22:00,65.3,47.3,24.21,South,180,20.0,24.0,52,0.00,,,0.00,meteohub,2013-08-23 04:22:00,
2013-08-22 22:27:00,65.5,46.9,24.22,South,180,23.0,24.0,51,0.00,,,0.00,meteohub,2013-08-23 04:27:00,
2013-08-22 22:32:00,65.8,47.1,24.21,South,180,23.0,26.0,51,0.00,,,0.00,meteohub,2013-08-23 04:32:00,
2013-08-22 22:37:00,65.8,47.1,24.21,South,180,24.0,26.0,51,0.00,,,0.00,meteohub,2013-08-23 04:37:00,
2013-08-22 22:42:00,65.7,47.1,24.22,South,180,21.0,26.0,51,0.00,,,0.00,meteohub,2013-08-23 04:42:00,
2013-08-22 22:47:00,65.1,47.5,24.22,South,180,23.0,25.0,53,0.00,,,0.00,meteohub,2013-08-23 04:47:00,
2013-08-22 22:52:00,65.3,47.3,24.22,South,180,18.0,25.0,52,0.00,,,0.00,meteohub,2013-08-23 04:52:00,
2013-08-22 22:57:00,65.1,47.1,24.22,South,180,17.0,23.0,52,0.00,,,0.00,meteohub,2013-08-23 04:57:00,
2013-08-22 23:02:00,65.3,47.3,24.22,South,180,20.0,23.0,52,0.00,,,0.00,meteohub,2013-08-23 05:02:00,
2013-08-22 23:07:00,65.3,47.3,24.21,South,180,20.0,21.0,52,0.00,,,0.00,meteohub,2013-08-23 05:07:00,
2013-08-22 23:12:00,65.1,47.5,24.21,South,180,18.0,20.0,53,0.00,,,0.00,meteohub,2013-08-23 05:12:00,
2013-08-22 23:17:00,65.7,47.1,24.21,South,180,24.0,24.0,51,0.00,,,0.00,meteohub,2013-08-23 05:17:00,
2013-08-22 23:22:00,66.0,46.8,24.21,SE,135,23.0,24.0,50,0.00,,,0.00,meteohub,2013-08-23 05:22:00,
2013-08-22 23:27:00,66.4,47.1,24.21,South,180,20.0,27.0,50,0.00,,,0.00,meteohub,2013-08-23 05:27:00,
2013-08-22 23:32:00,65.7,47.1,24.21,South,180,17.0,27.0,51,0.00,,,0.00,meteohub,2013-08-23 05:32:00,
2013-08-22 23:37:00,66.0,47.3,24.21,SE,135,15.0,27.0,51,0.00,,,0.00,meteohub,2013-08-23 05:37:00,
2013-08-22 23:42:00,65.5,47.5,24.22,SSE,158,12.0,20.0,52,0.00,,,0.00,meteohub,2013-08-23 05:42:00,
2013-08-22 23:47:00,65.5,47.5,24.22,South,180,14.0,20.0,52,0.00,,,0.00,meteohub,2013-08-23 05:47:00,
2013-08-22 23:52:00,66.0,46.8,24.22,South,180,11.0,18.0,50,0.00,,,0.00,meteohub,2013-08-23 05:52:00,
2013-08-22 23:57:00,66.2,46.9,24.21,South,180,11.0,21.0,50,0.00,,,0.00,meteohub,2013-08-23 05:57:00,